Theta_e
318 318 317 318 318 317 317 317 317 317 318 318 318 318 318 318 319 319 320 320 321 321 322 324 326 328 329 329 329 353 367 366 358 350 337 335 331 329 323 324 325 324 330 332 335 335 334
318 318 318 317 318 318 318 318 317 318 317 318 317 317 317 318 318 319 319 319 319 320 322 324 327 328 330 324 341 351 353 351 347 341 336 337 332 332 326 324 322 326 330 333 333 332 333
318 319 318 318 318 318 317 317 317 317 317 317 317 317 318 318 318 318 318 317 318 319 322 325 328 330 325 325 342 344 346 344 343 342 334 337 336 332 329 322 325 325 326 330 332 332 329
319 319 319 318 318 317 317 317 317 317 318 318 318 318 318 318 318 317 317 316 317 320 325 328 329 330 325 334 342 341 342 338 340 340 339 339 337 332 327 327 325 322 324 318 327 332 331
319 319 319 319 318 318 318 318 319 319 319 318 318 317 317 317 316 316 315 315 318 323 328 330 330 329 323 327 328 336 339 332 336 338 339 335 334 328 327 321 318 319 313 316 319 327 326
319 319 319 319 318 318 318 318 317 317 318 318 318 317 317 316 316 315 314 314 324 323 327 327 323 321 324 323 328 329 334 332 332 333 332 329 327 323 324 318 311 312 313 313 313 319 322
319 319 319 318 318 317 318 317 317 317 317 317 316 316 316 316 315 314 317 327 323 320 320 317 317 319 323 327 327 326 331 330 331 329 322 324 319 317 318 317 315 315 314 312 315 318 318
319 319 319 319 318 317 317 317 317 316 317 317 316 316 315 315 315 314 318 326 323 323 315 319 318 319 322 326 321 326 329 325 325 319 323 321 316 321 319 317 315 315 314 314 315 315 314
319 319 319 319 319 318 317 317 317 317 317 316 316 315 314 314 313 317 328 325 328 327 316 316 318 318 320 323 322 323 324 324 321 319 320 316 319 320 317 315 314 315 312 311 310 313 315
319 319 320 319 319 319 318 317 317 317 316 316 315 315 314 312 314 329 325 329 328 327 313 312 313 316 320 321 319 325 326 322 318 316 318 317 321 316 315 314 315 313 314 312 310 310 307
320 319 319 318 318 317 317 317 317 317 316 315 315 314 312 310 319 323 326 328 330 326 302 313 313 323 321 317 318 318 324 321 315 315 317 313 314 314 314 315 316 313 316 313 312 310 310
320 319 319 318 318 318 317 317 318 317 315 315 314 312 311 318 321 327 329 328 326 310 302 308 314 314 314 316 315 318 317 321 320 316 316 315 317 316 317 316 316 317 314 314 313 311 305
319 320 319 319 317 317 317 317 318 316 315 314 312 311 311 320 322 328 327 323 309 304 315 309 310 313 313 311 313 314 313 312 311 308 309 312 313 316 317 314 316 314 311 306 305 305 304
320 319 319 319 318 317 318 318 318 316 315 313 310 309 315 320 326 326 325 315 304 309 314 316 312 312 309 312 312 312 311 310 314 313 310 307 305 313 316 314 313 312 311 307 301 303 305
320 319 320 319 318 318 318 318 317 316 314 312 309 322 321 322 323 325 318 307 307 311 316 313 312 309 309 312 312 312 311 311 313 314 310 309 308 314 315 316 316 312 310 313 307 309 306
320 320 320 319 319 318 319 318 317 316 314 311 322 320 320 325 325 322 313 305 312 315 318 315 309 310 308 310 309 310 311 314 313 315 318 314 308 313 313 315 315 313 315 308 312 302 300
321 320 319 320 319 319 319 319 317 316 313 310 322 314 325 326 324 316 307 310 314 316 319 315 312 311 312 310 311 311 311 314 316 314 317 316 313 310 314 312 312 313 312 312 311 310 304
320 320 320 320 319 319 319 318 317 314 311 308 322 311 325 323 311 314 311 314 303 314 319 317 317 316 313 313 311 312 311 313 317 317 312 316 314 309 310 317 318 315 314 313 308 306 311
321 320 320 320 320 320 320 318 316 313 312 322 318 318 324 320 306 310 314 314 315 313 315 316 315 317 317 314 311 313 314 316 317 316 314 315 311 308 309 313 315 312 314 314 313 312 307
321 321 321 320 320 320 320 318 316 314 313 318 323 313 316 315 315 312 312 313 311 314 314 317 317 318 316 313 315 313 313 315 317 317 328 319 313 311 307 310 314 311 312 314 313 308 309
321 321 321 321 321 320 320 319 316 315 313 317 320 316 317 308 310 312 314 312 310 309 315 317 316 317 315 312 312 314 315 316 316 315 318 316 310 313 314 314 313 312 312 313 311 312 309
321 321 321 321 321 320 320 319 317 315 313 322 321 318 323 315 314 311 308 311 310 311 314 313 315 317 318 315 315 314 315 317 315 319 316 317 312 315 311 313 312 310 313 313 313 313 312
321 321 321 321 320 320 320 319 318 315 315 325 326 327 322 312 313 311 311 312 312 314 316 318 318 318 316 318 322 322 322 322 320 319 316 315 313 313 309 314 313 309 313 313 314 315 314
318 318 318 319 320 320 320 319 318 316 315 324 326 323 319 312 314 313 312 313 313 315 314 317 319 319 322 326 325 324 322 321 321 321 321 316 315 315 310 313 304 315 319 317 315 316 317
317 317 317 318 318 319 319 319 319 317 316 323 327 323 320 315 318 316 316 316 317 318 316 317 318 323 326 322 317 314 314 315 317 319 319 320 317 312 309 308 312 314 316 315 314 313 318
314 315 316 316 317 317 318 319 319 318 315 322 327 326 322 317 317 319 316 317 315 315 315 317 322 324 324 319 315 310 307 311 311 313 319 318 318 313 311 306 303 313 317 321 319 310 319
312 313 313 315 315 316 317 318 318 319 316 319 326 326 321 317 321 319 316 316 319 318 315 317 318 318 322 315 312 310 310 316 310 311 312 312 313 310 309 307 311 318 319 320 307 310 321
312 312 313 313 314 315 316 317 317 318 318 319 326 327 320 317 320 321 320 319 319 319 316 321 318 317 315 312 312 313 312 315 314 316 315 312 310 309 310 308 305 321 318 312 319 324 324
311 312 312 313 313 314 315 316 318 318 317 317 324 330 328 318 317 323 322 322 321 321 319 321 319 319 319 314 315 315 312 315 314 309 318 311 314 312 313 312 322 323 321 326 326 323 325
Wind_Speed
10 11 11 12 12 11 12 12 13 12 13 12 12 14 15 15 15 15 16 16 17 16 17 18 17 15 11 11 6 8 8 10 12 14 7 10 12 10 9 7 8 10 8 8 8 7 5
10 11 12 12 12 12 13 13 13 13 13 13 13 13 14 16 15 15 16 17 17 17 17 16 15 15 9 13 5 11 11 11 12 8 5 9 9 9 8 8 9 5 6 10 7 7 8
10 11 11 12 12 13 13 13 13 13 13 13 13 14 14 16 16 17 17 17 18 19 17 14 11 8 11 5 2 7 8 8 3 7 11 9 10 16 8 3 4 3 13 13 11 6 7
11 11 11 12 12 12 12 13 13 13 13 13 14 15 16 16 17 17 18 18 18 17 14 12 8 11 3 3 1 7 8 7 6 7 7 7 12 15 5 5 8 10 13 10 9 10 9
11 11 11 11 12 12 13 13 14 14 13 14 15 15 15 15 16 17 18 20 19 14 12 12 9 11 5 4 9 9 8 7 7 7 5 7 11 10 12 14 10 5 8 9 11 2 1
10 10 11 12 12 12 13 14 15 15 14 13 14 15 15 16 15 16 20 13 8 11 9 9 8 8 9 12 11 6 8 7 7 5 10 10 10 13 14 7 9 2 9 7 7 5 6
11 11 12 12 13 13 14 15 15 16 16 16 15 16 15 15 15 14 17 6 8 9 13 7 7 4 4 7 4 10 8 10 10 9 15 9 11 16 10 5 5 5 5 4 6 3 11
11 12 12 12 13 14 15 15 15 16 17 16 16 16 15 14 15 14 9 9 8 9 9 14 6 6 4 5 11 11 8 11 12 14 13 7 12 3 5 5 8 6 8 2 3 3 7
12 12 11 11 12 13 15 16 15 17 16 16 16 16 15 14 16 9 11 6 5 7 9 16 14 13 11 11 14 17 13 13 13 13 11 15 8 11 6 8 11 13 7 9 9 8 15
13 13 11 11 12 12 14 16 17 17 17 16 16 16 15 18 5 2 6 2 6 3 8 15 14 9 9 10 15 6 13 13 10 13 12 9 7 3 10 12 7 11 4 4 9 10 7
12 12 13 14 14 14 15 16 17 17 17 17 16 15 14 8 12 10 8 5 2 6 8 17 18 11 13 15 10 15 10 9 14 12 6 3 7 9 12 12 5 12 7 9 10 12 13
11 12 13 14 15 14 15 15 16 17 17 17 15 14 15 7 8 8 5 2 7 9 6 10 12 14 15 18 10 12 10 14 7 12 9 16 2 6 12 2 8 10 13 16 11 12 8
13 11 12 13 15 16 14 15 15 17 18 17 15 13 10 8 2 3 7 8 9 12 12 12 17 19 19 14 14 12 16 16 12 11 14 14 12 12 8 12 12 11 19 11 7 7 11
12 12 11 12 13 14 15 16 15 17 17 18 13 10 11 9 7 7 8 10 12 10 12 9 14 19 19 16 15 14 16 16 18 16 9 11 14 14 11 16 9 2 14 8 5 4 11
10 11 11 11 12 13 16 16 15 17 18 18 19 7 7 7 11 7 9 13 10 11 7 7 14 15 18 18 11 14 18 17 16 14 11 13 9 5 5 6 10 6 6 10 12 11 8
9 10 10 12 12 13 16 17 16 18 18 14 7 7 8 9 9 9 10 17 17 5 12 8 16 16 18 18 12 15 16 16 13 16 15 4 8 11 8 6 7 13 9 9 5 1 6
9 9 10 11 12 13 16 18 17 19 20 9 8 7 9 9 8 10 12 18 17 5 7 12 17 13 17 16 18 17 15 10 15 15 10 6 11 9 10 10 11 10 11 4 4 5 5
7 9 11 11 12 14 15 18 17 18 24 4 11 8 7 10 11 11 14 21 3 10 10 13 10 14 15 17 18 16 13 10 15 17 14 15 6 13 15 6 4 8 9 10 6 4 4
8 8 10 12 12 14 15 16 16 16 14 8 9 6 6 10 11 13 18 19 6 15 12 13 13 13 10 15 14 15 13 7 13 11 13 12 11 12 8 10 7 10 8 7 8 8 5
8 9 10 11 13 14 15 16 16 16 18 6 8 6 7 9 14 16 14 17 16 15 17 10 11 15 11 16 16 14 13 9 12 16 6 6 17 8 10 10 10 13 7 5 11 8 10
8 9 9 11 13 15 16 16 16 17 15 6 8 8 1 10 13 16 16 11 17 18 14 13 14 14 15 15 19 13 13 14 12 5 4 11 15 13 10 3 3 4 8 8 9 7 10
8 9 10 10 12 14 15 16 17 21 23 7 7 6 3 12 10 18 14 14 13 16 13 16 17 17 17 15 16 13 19 14 17 11 14 16 15 9 9 7 8 10 9 10 10 9 8
7 9 10 11 12 13 15 15 17 18 21 6 7 9 7 7 14 12 15 14 14 15 13 18 10 18 19 16 14 13 12 15 16 14 18 17 13 8 12 12 10 14 12 14 13 8 9
7 9 11 13 13 12 13 14 15 14 12 9 5 8 9 12 11 10 14 16 14 11 12 14 10 10 5 2 2 7 5 5 1 15 17 13 13 7 11 10 15 11 8 6 12 9 10
9 10 12 12 13 13 13 14 14 13 13 10 6 6 8 12 9 10 4 8 11 11 12 16 7 9 3 9 10 12 9 6 10 10 10 11 11 10 11 11 13 10 9 13 12 12 11
11 11 11 12 12 13 13 14 14 13 14 10 6 4 7 9 5 10 3 6 11 13 15 15 10 8 13 10 12 12 12 12 13 9 13 12 11 10 11 12 18 11 8 8 8 10 14
11 11 11 12 13 13 13 14 14 14 14 9 7 5 6 9 11 7 5 9 4 11 8 13 9 12 15 12 13 13 14 14 16 16 9 12 10 12 12 13 11 8 9 5 9 7 8
11 11 12 12 12 13 12 13 13 13 13 10 6 2 6 7 13 9 7 9 6 8 9 10 6 13 12 15 14 11 10 8 11 7 15 11 11 11 10 13 17 10 3 8 6 3 5
12 11 11 12 12 12 12 13 12 10 11 11 7 2 4 6 10 11 12 11 10 9 9 5 8 9 5 12 13 10 8 5 7 10 7 9 9 8 6 6 4 3 5 4 7 7 3
Wind_Direction
354 351 352 349 347 345 343 343 346 342 341 341 341 336 333 332 333 331 328 326 324 322 317 314 314 316 300 222 76 117 151 172 205 237 285 308 26 350 57 42 80 82 109 111 111 157 116
353 347 353 345 348 345 343 343 343 342 340 338 338 337 330 329 329 326 324 321 318 316 311 307 308 310 242 255 104 134 183 182 255 256 317 6 356 323 341 67 29 74 112 129 150 143 140
350 356 348 350 348 347 346 345 343 343 340 336 333 332 328 326 324 322 320 316 313 310 304 298 303 294 263 37 107 160 186 216 226 279 318 9 337 323 324 93 23 237 141 153 159 175 125
7 358 358 354 357 352 349 344 340 338 334 330 331 329 327 324 322 320 317 311 305 300 295 288 294 264 293 78 69 189 191 206 227 251 275 313 320 288 283 265 194 228 187 108 115 200 121
5 2 353 358 355 357 352 348 342 342 337 338 334 332 327 323 321 317 310 307 291 284 277 276 256 233 208 143 208 202 213 252 201 215 241 289 276 287 262 250 203 217 63 115 127 87 318
10 5 2 0 358 356 355 352 346 344 340 339 336 330 326 321 319 317 309 287 308 285 223 237 267 246 184 205 173 186 203 263 256 227 241 240 251 260 234 306 33 325 119 99 59 50 224
9 10 5 360 358 355 352 350 346 344 342 339 338 330 326 320 317 319 314 202 206 191 214 263 185 214 88 123 158 211 181 213 240 246 263 192 266 233 46 33 351 306 307 343 95 22 308
13 7 6 2 357 354 351 350 348 342 339 338 338 329 324 317 311 308 278 259 41 345 223 222 259 297 256 272 195 205 195 219 210 242 219 262 236 24 47 266 264 259 246 79 120 123 294
8 6 2 356 356 353 351 349 346 340 340 339 336 330 324 319 317 276 260 39 334 319 255 172 210 220 198 210 229 193 204 216 249 235 242 258 71 74 230 221 254 228 345 14 326 312 244
4 2 357 357 353 347 347 347 344 340 339 339 336 330 325 318 289 179 206 103 290 269 263 160 196 218 180 231 227 261 183 236 228 262 230 261 261 204 223 250 268 309 24 311 295 300 316
0 356 355 356 354 351 347 344 342 341 338 337 335 328 319 320 317 238 59 305 272 234 253 130 165 119 188 207 107 188 219 214 257 211 266 186 215 217 243 252 19 304 330 298 293 280 243
355 352 351 351 350 349 341 331 338 341 336 335 332 326 320 213 228 300 305 263 238 229 242 153 142 191 182 207 195 130 190 234 244 258 208 278 344 262 245 28 261 300 271 243 226 232 222
352 349 346 345 348 347 334 331 334 340 335 331 324 315 283 311 293 343 289 232 215 244 127 154 176 182 194 185 196 189 197 197 206 208 215 210 223 221 256 246 218 240 250 251 237 214 86
346 350 343 345 342 345 333 332 335 340 334 327 315 309 199 261 313 271 250 229 243 209 200 129 179 179 199 185 209 198 195 209 218 234 251 209 186 203 184 246 304 288 319 326 223 336 112
355 348 343 343 338 340 336 334 333 337 333 327 310 201 237 210 217 247 244 227 216 259 209 207 175 193 201 196 212 201 211 216 200 223 253 203 114 132 231 213 275 143 252 18 286 177 251
346 344 346 340 339 334 336 336 336 336 332 330 285 224 199 148 180 224 237 244 245 327 321 251 204 204 196 195 204 200 196 210 199 211 270 166 123 170 159 205 208 297 351 261 234 338 307
342 342 342 339 336 334 334 338 336 335 333 328 238 223 104 167 193 221 229 235 244 235 245 263 223 190 222 188 200 192 189 195 212 190 229 234 160 152 181 217 198 192 207 208 285 332 323
339 335 334 336 333 332 333 338 337 335 336 258 266 222 137 170 205 222 229 243 359 272 208 252 289 278 225 195 197 206 214 199 200 174 204 250 275 160 209 90 325 318 345 282 316 87 48
326 328 327 329 330 331 332 333 336 336 350 308 252 198 152 214 223 220 226 247 225 252 238 220 234 252 242 229 199 227 213 108 169 206 207 219 252 151 168 177 203 254 208 288 300 273 173
311 321 326 328 329 329 332 330 333 337 344 274 275 205 150 211 255 280 221 227 236 219 275 266 248 227 238 235 200 210 178 156 194 226 20 308 251 231 205 213 191 194 227 238 294 295 338
298 308 319 327 331 333 333 331 331 339 346 277 249 245 58 184 218 237 259 227 228 221 207 215 236 249 218 215 204 212 193 158 191 141 219 242 244 271 262 45 234 218 237 208 235 296 302
293 302 313 325 326 329 332 334 336 338 334 252 296 274 237 269 208 217 230 250 244 223 233 216 234 214 231 219 204 204 205 169 189 173 223 223 257 281 240 210 247 257 245 259 262 274 276
305 326 329 332 329 332 333 339 344 346 335 304 22 282 273 253 253 225 219 215 241 246 235 248 257 246 224 234 218 243 199 198 190 188 215 228 238 217 244 224 230 243 247 257 271 253 270
347 342 339 339 333 334 337 341 343 344 357 307 334 296 272 257 223 222 237 234 226 244 252 232 237 270 24 40 290 275 205 238 168 192 216 223 231 225 250 250 226 258 333 355 309 289 281
344 343 338 335 334 337 335 337 337 340 345 305 311 311 294 279 254 218 263 238 243 248 244 269 246 251 232 215 203 204 193 177 211 236 245 214 222 246 255 243 255 261 223 231 250 264 265
349 344 331 331 333 332 334 338 337 338 345 312 306 314 280 289 324 12 203 244 259 217 206 222 234 268 255 221 218 196 204 200 194 204 255 253 249 258 237 252 267 298 53 27 1 265 263
336 334 330 329 328 325 328 335 337 338 341 320 299 328 277 280 279 339 270 322 330 297 249 182 193 221 224 228 230 212 221 215 210 198 194 238 243 234 235 254 257 267 76 59 258 320 3
329 332 336 328 322 320 327 330 332 336 342 332 310 20 312 297 301 318 306 306 319 271 306 108 190 211 203 231 233 231 231 190 232 211 215 217 220 240 240 261 264 48 75 248 7 8 335
334 329 326 331 327 326 328 328 331 336 341 331 271 33 329 264 303 322 287 287 284 308 321 301 264 222 253 211 235 240 222 211 238 221 193 234 265 270 302 351 62 38 307 17 307 305 280